Torna al catalogo

GRIFON-2

AttivoScienzaSSO
NORAD 67269·PAYLOAD·🇷🇺 Russia
Questo nome del satellite non è ancora stato confermato da fonti ufficiali.

Lanciato Dec 28, 2025 da Vostochny Cosmodrome

Loading…

Prossimi Passaggi (prossime 24 ore)

TLE

AggiornatoSource: Space-Track

Epoca: Sep 14, 2026, 03:38 UTC

1 67269U 25313X   26257.15192376  .00010040  00000-0  38256-3 0  9992
2 67269  97.3893 331.1266 0014157  52.3467 307.9053 15.26815001 39534

Traccia GRIFON-2 in tempo reale con AllMySat

Download on the App Store